Location: Retta
(32.5524°N, 97.2356°W)
Time: 14:45:18
(UTC+00:00)

Daily predictions for brighter satellites

Satellite Brightness Start Highest point End
(mag) Time Altitude Azimuth Time Altitude Azimuth Time Altitude Azimuth
Meteor PRIRODA 4.2 12:04:02 10° NNE 12:07:36 58° E 12:11:11 10° S
CZ-4B R/B 3.5 12:04:58 10° NNE 12:08:28 50° E 12:12:01 10° S
H-2A R/B 4.3 12:05:18 10° ESE 12:08:42 24° ENE 12:12:09 10° NNE
Meteor 2-19 Rocket 4.3 12:05:07 10° SSW 12:11:09 74° W 12:17:13 10° N
Cosmos 1812 3.8 12:12:01 23° WNW 12:12:36 23° W 12:15:41 10° SW
Cosmos 1151 Rocket 3.7 12:10:05 16° NW 12:12:58 32° W 12:16:49 10° SSW
Cosmos 1340 Rocket 2.8 12:09:19 10° S 12:13:15 82° E 12:17:14 10° N
SL-27 R/B 3.4 12:10:06 10° N 12:13:33 48° ENE 12:16:56 10° SSE
NOAA 11 4.1 12:10:28 10° N 12:15:57 79° WNW 12:21:26 10° SSW
OAO 2 Rocket 3.9 12:15:04 10° SW 12:20:10 58° SSE 12:25:10 10° E
CZ-2C R/B 3.1 12:15:29 10° NNE 12:20:30 87° ESE 12:25:46 10° SSW
ATLAS 5 CENTAUR R/B 2.1 12:20:01 11° WSW 12:23:00 27° NW 12:26:27 10° N
Cosmos 1777 Rocket 4.2 12:18:39 10° SW 12:23:38 47° WNW 12:28:40 10° N
CZ-4B R/B 4.2 12:31:03 10° ESE 12:33:19 17° ENE 12:35:33 10° NNE
Cosmos 773 Rocket 3.9 12:28:12 10° NNW 12:33:24 79° WSW 12:38:32 10° S
BREEZE-M DEB 4.1 12:31:18 13° W 12:33:43 32° NNW 12:40:16 10° NE
Meteor 1-27 Rocket 3.8 12:29:33 10° N 12:35:16 82° W 12:41:05 10° S
Cosmos 1939 Rocket 2.7 12:37:35 10° N 12:41:29 82° WNW 12:45:19 10° SSW
Alouette 2 Rocket 3.8 12:38:36 10° N 12:42:07 62° E 12:46:02 10° SSE
DMSP B5D2-2 4.1 12:37:37 10° S 12:42:49 80° WSW 12:48:03 10° NNW
COSMO-SKYMED 1 3.8 12:39:56 10° SSW 12:43:20 23° W 12:46:46 10° NW
Meteor 1-31 Rocket 4.5 12:42:11 10° NW 12:44:14 14° WNW 12:46:17 10° W
SL-4 R/B 1.8 12:41:43 10° WSW 12:45:04 48° NW 12:48:38 10° NE
Envisat 4.5 12:44:39 10° NNW 12:47:27 15° WNW 12:50:15 10° W
NOAA 6 4.2 12:44:46 10° NNE 12:49:53 83° E 12:55:01 10° SSW
Cosmos 2026 Rocket 4.1 12:46:11 10° S 12:52:32 83° W 12:58:52 10° N
Cosmos 158 Rocket 4.5 12:48:17 10° N 12:53:27 65° ENE 12:58:42 10° SSE
Meteor 1-25 Rocket 4.2 12:49:30 10° SSW 12:55:05 63° W 13:00:37 10° N
Okean 1 4.4 12:51:49 10° N 12:55:38 47° E 12:59:26 10° SSE
Cosmos 2195 Rocket 4.5 12:50:38 10° SSW 12:56:41 63° W 13:02:44 10° N
Cosmos 1900 4.3 23:43:30 10° SSW 23:48:20 75° ESE 23:53:13 10° NNE
Sich 1 3.1 23:45:41 10° N 23:49:54 53° E 23:54:08 10° SSE
USA 267 4.3 23:44:21 10° NNE 23:50:16 38° NW 23:56:10 10° WSW
Cosmos 372 Rocket 4.5 23:45:36 10° N 23:50:30 39° ENE 23:55:23 10° SE
DEBRIS 3.0 23:50:24 10° SSW 23:52:11 27° SE 23:54:49 10° ENE
Cosmos 1340 Rocket 4.5 23:48:53 10° NNW 23:52:42 39° W 23:56:29 10° SSW
APEX 4.3 23:50:40 10° S 23:54:28 29° ESE 23:57:39 10° NE
